www.pogodaiklimat.ru

Погода и климат >> Архив погоды >> Великобритания >> Макрайханиш


ПОГОДА в Макрайханише

  • Прогноз погоды в Макрайханише
  • Монитор погоды в Макрайханише

АРХИВ ПОГОДЫ в Макрайханише

Время (UTC), дата Ветер
(напр.,м/с)
 
Видим.   Явления Облачность Т
(С)
Тd
(С)
f
(%)
Тe
(С)
Тes
(С)
Комфортность P
(гПа)
Po
(гПа)
Тmin
(С)
Tmax
(С)
R
(мм)
R24
(мм)
S
(см)
10 12.06 С 8 15 км н/о +13.5 +8.1 70 +11 +11 1017.4 1016.2
11 12.06 С 8 16 км н/о +14.3 +8.7 69 +12 +12 1016.9 1015.7
12 12.06 С 8 17 км н/о +14.5 +8.7 68 +12 +12 1016.6 1015.4
13 12.06 СЗ 8 16 км н/о +13.8 +8.1 68 +11 +11 1016.2 1014.9
14 12.06 С 7 19 км н/о +14.3 +8.6 69 +12 +12 1015.5 1014.3
15 12.06 С 4 23 км н/о +15.6 +9.8 68 +15 +15 1015.0 1013.8
16 12.06 СВ 6 28 км н/о +15.5 +7.0 57 +14 +14 1014.7 1013.5
17 12.06 С 5 30 км н/о +15.0 +8.2 64 +14 +14 1014.2 1013.0
18 12.06 С 5 30 км н/о +14.6 +7.5 62 +13 +13 1013.8 1012.6 +16.1
19 12.06 С 5 17 км н/о +12.6 +8.6 77 +10 +10 1013.7 1012.5
20 12.06 С 5 20 км н/о +11.6 +9.0 84 +9 +9 1013.7 1012.5
21 12.06 С 5 9000 м н/о +10.8 +9.3 90 +8 +8 1013.7 1012.5
22 12.06 С 5 27 км н/о +10.6 +9.1 90 +8 +8 1013.1 1011.9
23 12.06 С 5 28 км н/о +10.4 +8.6 89 +7 +7 1012.6 1011.4
00 13.06 С 4 27 км н/о +10.3 +8.2 87 +8 +8 1011.6 1010.4 3
01 13.06 С 6 23 км н/о +10.4 +8.5 88 +7 +7 1011.0 1009.8
02 13.06 С 5 26 км н/о +10.2 +8.0 86 +7 +7 1010.2 1009.0
03 13.06 СЗ 5 26 км н/о +10.0 +7.5 84 +7 +7 1009.5 1008.3
04 13.06 С 7 23 км н/о +9.7 +7.6 87 +6 +6 1009.2 1008.0
05 13.06 С 6 26 км н/о +9.3 +7.1 86 +6 +6 1008.9 1007.7
06 13.06 С 4 25 км н/о +9.8 +7.2 84 +7 +7 1008.2 1007.0 +9.2 3
07 13.06 С 7 25 км н/о +10.6 +7.4 81 +7 +7 1007.5 1006.3
08 13.06 СЗ 7 24 км н/о +11.0 +6.7 75 +8 +8 1007.0 1005.8
09 13.06 С 8 25 км н/о +10.7 +5.9 72 +7 +7 1006.4 1005.2
10 13.06 С 8 23 км н/о +10.8 +5.5 70 +7 +7 1005.8 1004.6
11 13.06 СЗ 8 23 км н/о +12.1 +6.2 67 +9 +9 1005.4 1004.2
12 13.06 СЗ 5 27 км н/о +11.6 +4.2 60 +9 +9 1004.7 1003.5
13 13.06 СЗ 5 25 км н/о +12.1 +5.9 66 +10 +10 1004.2 1003.0
14 13.06 СЗ 6 26 км н/о +11.7 +5.5 66 +9 +9 1003.8 1002.6
15 13.06 СЗ 5 27 км н/о +11.8 +5.6 66 +10 +10 1003.3 1002.1
16 13.06 СЗ 5 25 км н/о +11.5 +6.6 72 +9 +9 1002.9 1001.7
17 13.06 СЗ 5 24 км н/о +11.5 +6.6 72 +9 +9 1002.5 1001.3
18 13.06 СЗ 3 27 км н/о +12.0 +5.6 65 +11 +11 1002.2 1001.0 +13.1
19 13.06 З 2 26 км н/о +11.3 +6.4 72 +10 +10 1002.0 1000.8
20 13.06 СЗ 5 22 км н/о +10.9 +6.5 74 +8 +8 1001.9 1000.7
21 13.06 З 6 23 км н/о +10.2 +7.0 81 +7 +7 1002.1 1000.9
22 13.06 З 5 21 км н/о +10.2 +7.2 82 +7 +7 1002.4 1001.1
23 13.06 З 4 24 км н/о +9.7 +6.8 82 +7 +7 1002.3 1001.1
00 14.06 З 4 9000 м н/о +9.1 +6.7 85 +6 +6 1002.1 1000.9 2
01 14.06 З 4 21 км н/о +9.3 +6.9 85 +7 +7 1001.8 1000.6
02 14.06 З 5 20 км н/о +9.4 +7.2 86 +6 +6 1001.6 1000.4
03 14.06 ЮЗ 7 8000 м н/о +8.2 +7.1 93 +4 +4 1001.8 1000.6
04 14.06 ЮЗ 5 10 км н/о +7.8 +7.0 95 +4 +4 1002.0 1000.7
05 14.06 ЮЗ 4 19 км н/о +8.0 +6.9 93 +5 +5 1002.2 1000.9
06 14.06 ЮЗ 4 24 км н/о +9.4 +7.5 88 +7 +7 1002.5 1001.3 +7.6 0.6
07 14.06 ЮЗ 5 28 км н/о +9.8 +6.7 81 +7 +7 1002.6 1001.4
08 14.06 ЮЗ 5 27 км н/о +11.2 +6.9 75 +9 +9 1002.9 1001.7
09 14.06 ЮЗ 5 30 км н/о +10.3 +4.5 67 +8 +8 1003.4 1002.2
10 14.06 Ю 5 30 км н/о +11.1 +4.4 63 +9 +9 1003.5 1002.3
11 14.06 Ю 6 28 км н/о +13.2 +6.1 62 +11 +11 1003.7 1002.5
12 14.06 Ю 6 27 км н/о +12.6 +6.7 67 +10 +10 1004.0 1002.8
13 14.06 ЮВ 8 24 км н/о +14.7 +7.6 62 +13 +13 1004.3 1003.1
14 14.06 Ю 9 21 км н/о +13.2 +7.7 69 +10 +10 1004.4 1003.3
15 14.06 Ю 10
{13}
23 км н/о +13.3 +7.5 68 +10 +10 1004.3 1003.1
16 14.06 Ю 10
{14}
23 км н/о +11.4 +7.5 77 +8 +8 1004.7 1003.5
17 14.06 Ю 9 20 км н/о +12.0 +8.9 81 +9 +9 1005.1 1003.9
18 14.06 ЮВ 7 18 км н/о +11.7 +9.2 85 +8 +8 1005.2 1004.0 +14.8
19 14.06 ЮВ 8 11 км н/о +10.8 +9.5 92 +7 +7 1004.8 1003.6
20 14.06 ЮВ 7 6000 м н/о +10.7 +9.7 94 +7 +7 1004.9 1003.7
21 14.06 ЮВ 5 15 км н/о +11.3 +10.3 94 +8 +8 1005.1 1003.9
22 14.06 ЮВ 8 14 км н/о +11.4 +10.2 92 +8 +8 1005.2 1004.0
23 14.06 ЮВ 7 13 км н/о +11.5 +10.5 94 +8 +8 1005.2 1004.0
00 15.06 ЮВ 8 9000 м н/о +11.1 +10.3 95 +7 +7 1005.3 1004.0 2
01 15.06 ЮВ 5 15 км н/о +10.1 +9.1 94 +7 +7 1005.3 1004.1
02 15.06 ЮВ 5 15 км н/о +9.9 +8.7 92 +7 +7 1005.3 1004.1
03 15.06 ЮВ 5 13 км н/о +10.0 +9.1 94 +7 +7 1005.6 1004.4
04 15.06 ЮВ 3 12 км н/о +9.9 +9.3 96 +8 +8 1005.7 1004.5
05 15.06 ЮВ 4 13 км н/о +10.0 +9.6 97 +7 +7 1005.9 1004.7
06 15.06 ЮВ 3 17 км н/о +10.4 +9.9 97 +8 +8 1006.0 1004.8 +9.7 3
07 15.06 ЮВ 3 19 км н/о +10.7 +9.8 94 +9 +9 1006.3 1005.1
08 15.06 ЮВ 4 3300 м н/о +10.5 +9.8 95 +8 +8 1006.5 1005.3
09 15.06 ЮВ 4 19 км н/о +11.6 +11.2 97 +9 +9 1006.5 1005.3
10 15.06 В 5 14 км н/о +12.0 +11.3 95 +9 +9 1006.4 1005.2
11 15.06 В 6 9000 м н/о +11.7 +10.7 94 +9 +9 1006.5 1005.3
12 15.06 ЮВ 3 2000 м н/о +11.4 +10.9 97 +10 +10 1006.8 1005.6 4
13 15.06 В 4 20 км н/о +12.4 +11.8 96 +10 +10 1006.5 1005.3
14 15.06 В 1 19 км н/о +12.9 +11.7 92 +13 +13 1006.2 1005.0
15 15.06 В 5 5000 м н/о +12.1 +11.3 95 +10 +10 1006.1 1004.9
16 15.06 В 4 4500 м н/о +12.3 +11.7 96 +10 +10 1005.9 1004.7
17 15.06 З 5 8000 м н/о +11.3 +10.9 97 +8 +8 1006.2 1004.9
18 15.06 З 4 15 км н/о +11.1 +11.0 99 +8 +8 1006.7 1005.5 +13.5 7
19 15.06 ЮЗ 4 17 км н/о +10.5 +10.4 99 +8 +8 1007.3 1006.0
20 15.06 ЮЗ 4 19 км н/о +10.5 +10.0 97 +8 +8 1007.6 1006.4
21 15.06 СЗ 1 20 км н/о +10.2 +9.3 94 +10 +10 1007.9 1006.7
22 15.06 СВ 2 21 км н/о +9.0 +8.5 97 +7 +7 1008.1 1006.9
23 15.06 СВ 1 6000 м н/о +9.2 +8.7 97 +8 +8 1008.2 1007.0
00 16.06 ЮВ 2 15 км н/о +9.2 +9.0 99 +8 +8 1008.2 1007.0 0.8
01 16.06 ЮВ 3 14 км н/о +8.8 +8.7 99 +6 +6 1007.8 1006.6
02 16.06 В 3 16 км н/о +8.8 +8.7 99 +6 +6 1007.6 1006.4
03 16.06 В 4 17 км н/о +9.0 +8.8 99 +6 +6 1007.6 1006.4
04 16.06 В 3 15 км н/о +8.4 +8.2 99 +6 +6 1007.6 1006.4
05 16.06 В 2 16 км н/о +8.7 +8.6 99 +7 +7 1007.7 1006.5
06 16.06 В 3 18 км н/о +9.8 +9.6 99 +8 +8 1008.0 1006.8 +8.1 0.8
07 16.06 В 2 14 км н/о +10.4 +9.9 97 +9 +9 1008.2 1007.0
08 16.06 ЮВ 3 18 км н/о +11.6 +10.4 92 +10 +10 1008.4 1007.2
09 16.06 ЮЗ 2 28 км н/о +13.0 +9.3 78 +13 +13 1008.4 1007.2
10 16.06 Ю 4 28 км н/о +15.5 +11.2 76 +15 +15 1008.5 1007.3
11 16.06 Ю 6 27 км н/о +14.3 +8.8 69 +12 +12 1008.6 1007.4
12 16.06 Ю 7 23 км н/о +14.0 +8.4 69 +12 +12 1008.4 1007.2
13 16.06 ЮВ 7 21 км н/о +13.4 +9.8 79 +11 +11 1008.5 1007.3
14 16.06 Ю 8 21 км н/о +13.2 +9.9 80 +10 +10 1008.4 1007.2
15 16.06 Ю 9 25 км н/о +13.7 +9.2 74 +11 +11 1008.0 1006.8
16 16.06 Ю 9 25 км н/о +13.3 +8.9 75 +10 +10 1007.6 1006.4
17 16.06 Ю 9 25 км н/о +12.7 +8.9 78 +9 +9 1007.1 1005.9
18 16.06 ЮВ 8
{13}
22 км н/о +13.2 +10.5 84 +10 +10 1006.8 1005.6 +15.6
19 16.06 ЮВ 7 19 км н/о +12.4 +10.3 87 +9 +9 1006.3 1005.1
20 16.06 ЮВ 7 13 км н/о +12.1 +10.7 91 +9 +9 1005.7 1004.5
21 16.06 В 5 17 км н/о +11.6 +11.2 97 +9 +9 1004.4 1003.2
22 16.06 ЮВ 4 21 км н/о +11.5 +11.0 97 +9 +9 1004.2 1003.0
23 16.06 ЮВ 2 22 км н/о +11.8 +11.3 97 +11 +11 1004.6 1003.4
00 17.06 Ю 6 23 км н/о +12.1 +10.5 90 +9 +9 1004.7 1003.5 2
01 17.06 ЮЗ 6 25 км н/о +11.3 +9.3 87 +8 +8 1005.4 1004.2
02 17.06 ЮЗ 7 28 км н/о +10.6 +8.6 87 +7 +7 1006.0 1004.8
03 17.06 Ю 3 27 км н/о +9.8 +7.7 87 +7 +7 1006.3 1005.1
04 17.06 Ю 5 19 км н/о +11.2 +9.3 88 +8 +8 1006.7 1005.4
05 17.06 ЮВ 2 19 км н/о +11.3 +9.8 90 +10 +10 1006.7 1005.5
06 17.06 Ю 5 20 км н/о +12.1 +9.5 84 +10 +10 1006.9 1005.7 +9.7 2
07 17.06 Ю 5 21 км н/о +12.5 +9.6 82 +10 +10 1007.1 1005.8
08 17.06 Ю 5 20 км н/о +12.4 +9.4 82 +10 +10 1007.3 1006.1
09 17.06 Ю 6 20 км н/о +13.0 +9.4 79 +11 +11 1007.2 1006.0
10 17.06 Ю 8 22 км н/о +13.9 +9.9 77 +11 +11 1007.2 1006.0
11 17.06 Ю 7
{13}
5000 м н/о +12.5 +10.8 89 +10 +10 1007.2 1006.0
12 17.06 Ю 10 26 км н/о +15.8 +11.6 76 +14 +14 1006.6 1005.4 0.6
13 17.06 Ю 8
{14}
6000 м н/о +12.2 +10.7 91 +9 +9 1007.4 1006.2
14 17.06 ЮЗ 7 11 км н/о +14.3 +10.4 77 +12 +12 1008.0 1006.8
15 17.06 З 4 25 км н/о +14.0 +10.0 77 +13 +13 1008.4 1007.2
16 17.06 З 2 23 км н/о +13.3 +10.9 85 +13 +13 1008.9 1007.7
17 17.06 ЮЗ 1 7000 м н/о +12.6 +10.2 85 +13 +13 1009.2 1008.0
18 17.06 З 1 22 км н/о +12.6 +10.1 85 +13 +13 1009.4 1008.2 +15.8 7
19 17.06 СВ 1 24 км н/о +12.6 +10.0 84 +13 +13 1009.7 1008.5
20 17.06 В 2 23 км н/о +12.5 +10.9 90 +11 +11 1009.8 1008.6
21 17.06 В 2 18 км н/о +11.9 +11.1 95 +11 +11 1009.9 1008.7
22 17.06 ЮВ 3 22 км н/о +11.4 +10.4 94 +9 +9 1010.1 1008.9
23 17.06 В 1 17 км н/о +10.0 +8.8 92 +9 +9 1010.1 1008.9
00 18.06 В 1 7000 м н/о +9.3 +8.6 95 +9 +9 1010.1 1008.9 0.8
01 18.06 Ю 5 24 км н/о +10.7 +9.1 90 +8 +8 1009.9 1008.7
02 18.06 Ю 2 21 км н/о +9.3 +8.1 92 +7 +7 1009.9 1008.7
03 18.06 Ю 4 17 км н/о +10.5 +9.3 92 +8 +8 1009.7 1008.5
04 18.06 ЮВ 4 12 км н/о +10.0 +9.0 93 +7 +7 1009.6 1008.4
05 18.06 В 2 13 км н/о +9.7 +9.2 97 +8 +8 1009.8 1008.5
06 18.06 ЮЗ 8 23 км н/о +12.0 +9.1 82 +9 +9 1009.5 1008.3 +8.6 0.8
07 18.06 ЮЗ 7 25 км н/о +11.6 +8.4 81 +9 +9 1009.9 1008.7
08 18.06 ЮЗ 7 22 км н/о +12.2 +9.1 81 +9 +9 1010.1 1008.9
09 18.06 ЮЗ 7 20 км н/о +12.3 +9.1 81 +9 +9 1010.2 1009.0
10 18.06 ЮЗ 7 21 км н/о +14.3 +10.1 76 +12 +12 1010.5 1009.3
11 18.06 ЮЗ 7 22 км н/о +14.4 +10.1 75 +12 +12 1010.7 1009.5
12 18.06 ЮЗ 5 24 км н/о +14.5 +10.0 74 +13 +13 1010.7 1009.5
13 18.06 З 4 23 км н/о +14.0 +9.8 76 +13 +13 1010.6 1009.4
14 18.06 СЗ 4 8000 м н/о +12.2 +11.0 92 +10 +10 1010.9 1009.7
15 18.06 Ю 1 23 км н/о +13.5 +11.0 85 +14 +14 1010.9 1009.7
16 18.06 ЮВ 4 н/о н/о +13.4 +11.8 90 +12 +12 1010.6 1009.4
17 18.06 ЮВ 3 16 км н/о +13.5 +11.4 87 +12 +12 1010.4 1009.2
18 18.06 З 2 25 км н/о +13.4 +10.6 83 +13 +13 1010.4 1009.2
19 18.06 СЗ 1 13 км н/о +12.9 +10.9 88 +14 +14 1010.2 1009.0
20 18.06 ЮВ 3 15 км н/о +12.4 +11.3 93 +11 +11 1010.0 1008.8
21 18.06 ЮВ 2 13 км н/о +11.8 +11.0 95 +11 +11 1010.0 1008.8
22 18.06 В 3 14 км н/о +11.0 +10.2 95 +9 +9 1009.8 1008.6
23 18.06 В 3 13 км н/о +10.8 +10.4 97 +9 +9 1009.5 1008.3
00 19.06 В 3 7000 м н/о +10.4 +10.1 98 +8 +8 1009.1 1007.9 0.8
01 19.06 ЮВ 2 4800 м н/о +9.3 +9.2 99 +8 +8 1008.8 1007.6
02 19.06 В 2 7000 м н/о +9.7 +9.7 100 +8 +8 1008.4 1007.2
03 19.06 ЮВ 1 9000 м н/о +8.7 +8.6 99 +8 +8 1008.3 1007.1
04 19.06 В 2 14 км н/о +8.3 +8.2 99 +6 +6 1008.1 1006.9
05 19.06 В 2 15 км н/о +9.2 +9.2 100 +7 +7 1007.8 1006.6
06 19.06 ЮВ 4 22 км н/о +11.6 +10.2 91 +9 +9 1007.5 1006.3 +7.3 0.8
07 19.06 Ю 3 26 км н/о +12.5 +10.0 85 +11 +11 1007.8 1006.6
08 19.06 ЮЗ 4 26 км н/о +13.4 +9.8 79 +12 +12 1007.3 1006.1

 

Местоположение метеостанции Макрайханиш (Великобритания): широта 55.43 долгота -5.70 высота над уровнем моря 10 м.

В архиве по умолчанию представлена погода в Макрайханише за последнюю неделю. Архивные данные за месяц целиком и за предыдущие месяцы, начиная с января 2011 года, Вы можете получить, выбрав интересующий диапазон дат из раскрывающегося списка и нажав кнопку "Ввод!".


*Определитесь, кто Вы:
робот инопланетянин человек

Внимание! Время в таблицах - всемирное. Для получения местного времени необходимо прибавить поправку, которая равна 0 ч.

Смотрите также архив погоды в соседних городах и на ближайших метеорологических станциях:

Погода в Баллипатрик Форест (Великобритания) (41 км)
Погода в Порт-Эллене (Великобритания) (44 км)
Погода в Прествике (Великобритания) (71 км)
Погода в Портгленоне (Великобритания) (78 км)
Погода в Аэропорту West Freugh (Великобритания) (80 км)
Погода на Магиллигане (Великобритания) (84 км)
Погода в Глазго (Великобритания) (90 км)
Погода в Белфасте (Великобритания) (93 км)
Погода в Малин Хед (Ирландия) (104 км)
Погода на Озере Lough Fea (Великобритания) (106 км)

Пояснения к столбцам:

Ветер - указаны скорость ветра в м/с - средняя за 10 мин, порывы в срок и между сроками (в фигурных скобках) и направление, откуда дует ветер: С - северный, СВ - северо-восточный, В - восточный, ЮВ - юго-восточный, Ю - южный, ЮЗ - юго-западный, З - западный, СЗ - северо-западный.
Видимость - горизонтальная дальность видимости в метрах или километрах. При видимости от 1 до 10 км при отсутствии осадков обычно наблюдается дымка, при ухудшении видимости до 1 км и менее - туман. В сухую погоду видимость может ухудшаться дымом, пылью или мглою.
Явления - указаны атмосферные явления, наблюдавшиеся в срок или в последний час перед сроком; фигурными скобками обозначены явления, наблюдавшиеся между сроками (за 1-3 часа до срока); квадратными скобками обозначены град или гололедные отложения с указанием их диаметра в мм.
Облачность - указаны через наклонную черту общая и нижняя облачность в баллах и высота нижней границы облаков в метрах; квадратными скобками обозначены формы облаков: Ci - перистые, Cs - перисто-слоистые, Cc - перисто-кучевые, Ac - высококучевые, As - высокослоистые, Sc - слоисто-кучевые, Ns - слоисто-дождевые, Cu - кучевые, Cb - кучево-дождевые. Подробнее классификацию облаков см. в Атласе облаков (PDF).
T - Температура воздуха - температура, измеренная на высоте 2 м над землей.
Td - Температура точки росы - температура, при понижении до которой содержащийся в воздухе водяной пар достигнет насыщения.
f - Относительная влажность воздуха - влажноcть воздуха, измеренная на высоте 2 м над землей.
Te - Эффективная температура - температура, которую ощущает одетый по сезону человек в тени. Характеристика душности погоды. При расчете учитывается влияние влажности воздуха и скорости ветра на теплоощущения человека.
Tes - Эффективная температура на солнце - температура, которую ощущает человек, с поправкой на солнечный нагрев. Характеристика знойности погоды. Зависит от высоты солнца над горизонтом, облачности и скорости ветра. Ночью, в пасмурную погоду, а также при ветре 12 м/с и более поправка равна нулю.
P - Атмосферное давление - приведенное к уровню моря атмосферное давление.
Po - Атмосферное давление - измеренное на уровне метеостанции атмосферное давление.
Tmin - Минимальная температура - минимум температуры воздуха на высоте 2 м над землей.
Tmax - Максимальная температура - максимум температуры воздуха на высоте 2 м над землей.
R - Количество осадков - Количество выпавших осадков за период времени, мм. При наведении курсора мыши на число - период времени, за который выпало указанное количество осадков.
R24 - Количество осадков - Количество выпавших осадков за 24 часа, мм.
S - Снежный покров - Высота снежного покрова, см. При наведении курсора мыши на число - состояние снежного покрова и степень покрытия местности в баллах.